Location: Peterborough
(44.3091°N, 78.3197°W)
Time: 03:25:18
(UTC-04:00)

S-56A Canister/Altair - Pass Details

Date: 27 March 2023
Orbit: 639 x 2492 km, 38.9° (Epoch: 08 June)

Event Time Altitude Azimuth Distance (km) Brightness Sun altitude
Rises 01:30:02 0° 284° (WNW) 5,982 12.2 -43.1°
Reaches altitude 10° 01:34:09 10° 277° (W) 5,082 11.7 -43.1°
Enters shadow 01:39:34 25° 263° (W) 4,039 11.0 -43.0°
Maximum altitude 01:47:24 40° 216° (SW) 3,248 - -42.7°
Drops below altitude 10° 01:59:33 10° 153° (SSE) 4,649 - -42.3°
Sets 02:03:09 0° 146° (SSE) 5,440 - -42.1°
